[[[{"header":{"parameterUnit":"kt","parameterCategory":2,"dx":1,"dy":1,"la1":30.253999710083008,"la2":30.299108505249023,"lo1":-89.0895004272461,"lo2":-89.04439544677734,"nx":28,"ny":28,"refTime":"2022-10-04T21:00:00:Z","depth":0,"parameterNumber":1,"parameterNumberName":"U-component_of_WINDS"},"data":[-1.0548,-1.0678,-1.0786,-1.0986,-1.1118,-1.1275,-1.1367,-1.1498,-1.1632,-1.1836,-1.1974,-1.2102,-1.2284,-1.2479,-1.2638,-1.2693,-1.2753,-1.2717,-1.2788,-1.2843,-1.2858,-1.2873,-1.2848,-1.2728,-1.2728,-1.2715,-1.2715,-1.2715,-1.0575,-1.0705,-1.0842,-1.105,-1.117,-1.127,-1.1446,-1.154,-1.168,-1.1847,-1.1989,-1.218,-1.2347,-1.2547,-1.2728,-1.2797,-1.2857,-1.2838,-1.2835,-1.2863,-1.2926,-1.2897,-1.2786,-1.2786,-1.2786,-1.2786,-1.2786,-1.2786,-1.0653,-1.0726,-1.0916,-1.1068,-1.1203,-1.1343,-1.1435,-1.1589,-1.1729,-1.1928,-1.2037,-1.22,-1.2392,-1.2669,-1.2791,-1.2924,-1.2967,-1.2984,-1.2989,-1.299,-1.2974,-1.2975,-1.2961,-1.2962,-1.2963,-1.2964,-1.2964,0,-1.0745,-1.0831,-1.0972,-1.1144,-1.1262,-1.1409,-1.1563,-1.1623,-1.1852,-1.1959,-1.2124,-1.2239,-1.2469,-1.264,-1.2838,-1.2965,-1.3086,-1.3111,-1.3123,-1.3071,-1.2998,-1.3038,-1.3135,-1.3111,-1.3113,-1.3114,-1.3115,-1.3116,-1.0832,-1.0905,-1.1159,-1.1243,-1.1356,-1.1489,-1.1593,-1.179,-1.1892,-1.2114,-1.2173,-1.2347,-1.2496,-1.2747,-1.2935,-1.3109,-1.317,-1.3148,-1.3198,-1.3144,-1.3171,-1.3164,-1.3174,-1.3135,-1.3132,-1.313,-1.3129,0,-1.087,-1.1052,-1.1204,-1.1451,-1.1516,-1.1584,-1.1799,-1.1884,-1.2028,-1.2166,-1.221,-1.2437,-1.2599,-1.2793,-1.3019,-1.3115,-1.3237,-1.3292,-1.3171,-1.3192,-1.3192,-1.3189,-1.316,-1.3167,-1.3293,-1.3291,-1.329,0,-1.1017,-1.1107,-1.1375,-1.1453,-1.1561,-1.1757,-1.186,-1.1995,-1.2163,-1.2274,-1.244,-1.2541,-1.2774,-1.2904,-1.3047,-1.3181,-1.3224,-1.3307,-1.3344,-1.3292,-1.3281,-1.3352,-1.3358,-1.3425,-1.3425,-1.3425,-1.3425,0,-1.1058,-1.1309,-1.1438,-1.1525,-1.1801,-1.1858,-1.1976,-1.2168,-1.2269,-1.2433,-1.2502,-1.2679,-1.2777,-1.2913,-1.3094,-1.312,-1.3263,-1.3338,-1.3348,-1.3343,-1.3371,-1.3366,-1.3291,-1.3425,-1.3425,-1.3425,-1.3425,0,-1.1206,-1.1362,-1.1521,-1.1755,-1.1814,-1.19,-1.2086,-1.2205,-1.2396,-1.2491,-1.2622,-1.2758,-1.2891,-1.295,-1.3138,-1.312,-1.3207,-1.3299,-1.3304,-1.3328,-1.3389,-1.332,-1.3228,-1.3226,-1.3349,-1.3348,-1.3348,0,-1.1202,-1.1413,-1.1583,-1.1732,-1.1856,-1.2034,-1.2134,-1.2298,-1.2433,-1.2561,-1.2713,-1.2859,-1.2944,-1.3017,-1.3084,-1.3248,-1.3271,-1.3251,-1.3438,-1.3442,-1.338,-1.3297,-1.3235,-1.3226,-1.3343,-1.3343,-1.3344,0,-1.1224,-1.1557,-1.1572,-1.168,-1.1927,-1.2033,-1.2148,-1.2335,-1.241,-1.2578,-1.2681,-1.2892,-1.2966,-1.3085,-1.3216,-1.3275,-1.3261,-1.3347,-1.3355,-1.3325,-1.3357,-1.3296,-1.3294,-1.3336,-1.3337,-1.3338,-1.3339,0,-1.1405,-1.1535,-1.1583,-1.1816,-1.1929,-1.2034,-1.2238,-1.233,-1.2442,-1.2583,-1.274,-1.293,-1.3124,-1.3174,-1.3286,-1.3361,-1.338,-1.3457,-1.353,-1.3473,-1.3479,-1.3482,-1.3504,-1.3507,-1.351,-1.3513,0,0,-1.1357,-1.1548,-1.1733,-1.1851,-1.1957,-1.2142,-1.2236,-1.2363,-1.2614,-1.2685,-1.2726,-1.305,-1.3203,-1.3373,-1.3371,-1.345,-1.3484,-1.3496,-1.3499,-1.3496,-1.3494,-1.3497,-1.3496,-1.3518,-1.3519,-1.352,-1.3521,0,-1.1465,-1.161,-1.17,-1.1838,-1.2049,-1.2194,-1.2215,-1.2459,-1.2554,-1.2709,-1.2863,-1.2982,-1.3237,-1.3379,-1.3484,-1.348,-1.3591,-1.3524,-1.3451,-1.352,-1.3513,-1.3509,-1.3508,-1.3505,-1.3528,-1.3527,-1.3527,0,-1.1523,-1.17,-1.1765,-1.2015,-1.2156,-1.2281,-1.2406,-1.2534,-1.263,-1.2832,-1.2983,-1.3116,-1.3324,-1.3457,-1.3525,-1.3566,-1.3677,-1.368,-1.3668,-1.368,-1.3757,-1.3749,-1.3742,-1.3835,-1.3835,-1.3835,0,0,-1.1589,-1.1712,-1.1966,-1.2054,-1.2131,-1.2349,-1.2437,-1.2559,-1.2739,-1.2811,-1.2985,-1.3158,-1.3309,-1.3404,-1.3556,-1.3673,-1.3734,-1.3709,-1.3695,-1.3682,-1.3687,-1.376,-1.3752,-1.3836,-1.3836,-1.3836,0,0,-1.1623,-1.1919,-1.2,-1.2127,-1.2291,-1.2551,-1.2598,-1.2705,-1.2862,-1.2874,-1.3091,-1.3146,-1.3275,-1.3402,-1.3387,-1.3587,-1.3655,-1.3663,-1.3499,-1.3484,-1.347,-1.3438,-1.3546,0,0,0,0,0,-1.1839,-1.1882,-1.1952,-1.2004,-1.2324,-1.251,-1.2553,-1.273,-1.2774,-1.2807,-1.297,-1.3084,-1.3438,-1.343,-1.3481,-1.3496,-1.3845,-1.3844,-1.3842,-1.366,-1.3642,-1.3626,0,0,0,0,0,0,-1.1861,-1.1923,-1.1952,-1.2209,-1.2283,-1.251,-1.2623,-1.2673,-1.2775,-1.2794,-1.3049,-1.3092,-1.325,-1.3417,-1.346,-1.347,-1.3532,-1.3845,-1.3843,-1.3842,-1.3654,-1.3639,-1.3626,0,0,0,0,0,-1.1879,-1.1929,-1.2395,-1.221,-1.2274,-1.2521,-1.2623,-1.2666,-1.2748,-1.3002,-1.3048,-1.2873,-1.3245,-1.3294,-1.3444,-1.3446,-1.3504,-1.3519,-1.3844,-1.3843,-1.3842,-1.3646,0,0,0,0,0,0,-1.1893,-1.1972,-1.2412,-1.2438,-1.2207,-1.2512,-1.2565,-1.2658,-1.2953,-1.2999,-1.2836,-1.2847,-1.3242,-1.3281,-1.3317,-1.3427,-1.3481,-1.3496,-1.3506,-1.3843,-1.3842,-1.3841,0,0,0,0,0,0,-1.1946,-1.1992,-1.2426,-1.2411,-1.2438,-1.2502,-1.255,-1.2704,-1.2955,-1.2772,-1.2791,-1.2837,-1.319,-1.3271,-1.33,-1.3535,-1.3463,-1.3478,-1.3488,-1.3495,-1.3842,-1.3842,0,0,0,0,0,0,-1.1969,-1.2009,-1.2406,-1.2426,-1.2449,-1.2758,-1.2643,-1.2962,-1.2937,-1.2756,-1.294,-1.2942,-1.3177,-1.3211,-1.3288,-1.3509,-1.3528,-1.3464,-1.3474,-1.3481,-1.3486,0,0,0,0,0,0,0,-1.1987,-1.1674,-1.2255,-1.2438,-1.2459,-1.2681,-1.2689,-1.2696,-1.2937,-1.2939,-1.294,-1.2941,-1.3379,-1.3395,-1.3411,-1.3488,0,0,-1.3462,-1.3469,0,0,0,0,0,0,0,0,-1.1662,-1.1671,-1.2256,-1.2262,-1.2267,-1.2683,-1.2688,-1.2694,-1.2938,-1.2939,-1.294,-1.2941,-1.3383,-1.3396,-1.341,0,0,0,0,0,0,0,0,0,0,0,0,0,0,0,-1.2257,-1.2261,0,-1.2683,-1.2688,-1.2693,-1.2938,-1.2939,-1.294,-1.294,-1.3387,-1.3398,-1.3409,0,0,0,0,0,0,0,0,0,0,0,0,0,0,0,0,0,0,0,0,0,0,0,0,0,0,0,0,0,0,0,0,0,0,0,0,0,0,0,0,0,0,0,0,0,0,0,0,0,0,0,0,0,0,0,0,0,0,0,0,0,0,0,0,0,0,0,0,0]}],[{"header":{"parameterUnit":"kt","parameterCategory":2,"dx":1,"dy":1,"la1":30.253999710083008,"la2":30.299108505249023,"lo1":-89.0895004272461,"lo2":-89.04439544677734,"nx":28,"ny":28,"refTime":"2022-10-04T21:00:00:Z","depth":0,"parameterNumber":2,"parameterNumberName":"V-component_of_WINDS"},"data":[-3.6447,-3.6547,-3.6577,-3.6705,-3.6753,-3.6845,-3.6887,-3.6945,-3.6997,-3.7109,-3.7178,-3.7217,-3.728,-3.7368,-3.7443,-3.7458,-3.7487,-3.7501,-3.7516,-3.7427,-3.7416,-3.7406,-3.7384,-3.7508,-3.7508,-3.7604,-3.7605,-3.7606,-3.638,-3.643,-3.6506,-3.66,-3.6666,-3.6671,-3.6745,-3.6799,-3.688,-3.6946,-3.7015,-3.7115,-3.7197,-3.7255,-3.7338,-3.7384,-3.7389,-3.7404,-3.74,-3.741,-3.7315,-3.7292,-3.7398,-3.7398,-3.7398,-3.7398,-3.7398,-3.7398,-3.6267,-3.6326,-3.64,-3.6484,-3.6539,-3.6601,-3.6662,-3.6709,-3.6782,-3.6874,-3.6894,-3.6985,-3.7055,-3.7168,-3.7213,-3.7284,-3.7272,-3.7296,-3.7302,-3.7307,-3.7309,-3.7165,-3.7299,-3.7299,-3.7299,-3.7299,-3.7298,0,-3.6193,-3.6214,-3.6289,-3.6373,-3.6435,-3.6503,-3.6569,-3.6607,-3.6659,-3.6718,-3.6804,-3.6859,-3.6966,-3.7049,-3.7133,-3.7174,-3.7181,-3.7185,-3.7202,-3.7193,-3.7175,-3.7184,-3.7029,-3.718,-3.7179,-3.7179,-3.7178,-3.7178,-3.6079,-3.6144,-3.6236,-3.6285,-3.6328,-3.6406,-3.6458,-3.6499,-3.6552,-3.6638,-3.6687,-3.6772,-3.6842,-3.6974,-3.7024,-3.7103,-3.7107,-3.7162,-3.7118,-3.7108,-3.7106,-3.7102,-3.7108,-3.7168,-3.7169,-3.717,-3.7171,0,-3.6012,-3.606,-3.617,-3.6254,-3.6277,-3.6342,-3.6413,-3.6473,-3.6511,-3.6598,-3.662,-3.6679,-3.6762,-3.6804,-3.6907,-3.6926,-3.7033,-3.7035,-3.7009,-3.7012,-3.7064,-3.7058,-3.7229,-3.7253,-3.7127,-3.7128,-3.7129,0,-3.5933,-3.6017,-3.6083,-3.6144,-3.6238,-3.6277,-3.6369,-3.641,-3.6471,-3.654,-3.6557,-3.662,-3.6664,-3.6734,-3.6762,-3.6857,-3.6876,-3.6896,-3.6902,-3.6894,-3.6891,-3.692,-3.6913,-3.6915,-3.6914,-3.6913,-3.6913,0,-3.5822,-3.5955,-3.6055,-3.6093,-3.6189,-3.6235,-3.6277,-3.6345,-3.6395,-3.6466,-3.6498,-3.6578,-3.6621,-3.6681,-3.6717,-3.6686,-3.6834,-3.6798,-3.6854,-3.6853,-3.6882,-3.6879,-3.7023,-3.6911,-3.6911,-3.6911,-3.6911,0,-3.5764,-3.5838,-3.5976,-3.6056,-3.6089,-3.6155,-3.6236,-3.6302,-3.6372,-3.6395,-3.6451,-3.6466,-3.6553,-3.6515,-3.6634,-3.6584,-3.6625,-3.6652,-3.6657,-3.6665,-3.6621,-3.6694,-3.6828,-3.6842,-3.6676,-3.6674,-3.6672,0,-3.5624,-3.5775,-3.581,-3.594,-3.6015,-3.6029,-3.6102,-3.6164,-3.62,-3.6269,-3.6308,-3.6385,-3.6366,-3.6395,-3.6449,-3.6492,-3.6558,-3.6485,-3.658,-3.6583,-3.656,-3.6684,-3.6692,-3.6794,-3.6648,-3.665,-3.6652,0,-3.552,-3.5637,-3.5657,-3.5701,-3.579,-3.5853,-3.5937,-3.6023,-3.6067,-3.6134,-3.6204,-3.6314,-3.6304,-3.6352,-3.6372,-3.6426,-3.6514,-3.6407,-3.6409,-3.6424,-3.6639,-3.6647,-3.6664,-3.6516,-3.6519,-3.6521,-3.6632,0,-3.542,-3.5502,-3.556,-3.5657,-3.5712,-3.5796,-3.5842,-3.5894,-3.5908,-3.5944,-3.6048,-3.6108,-3.6193,-3.6224,-3.6237,-3.6348,-3.6335,-3.6322,-3.6286,-3.6368,-3.6406,-3.6421,-3.6227,-3.6226,-3.6226,-3.6225,0,0,-3.5272,-3.539,-3.5424,-3.5508,-3.5557,-3.5569,-3.5654,-3.5702,-3.5799,-3.5832,-3.5813,-3.5975,-3.6024,-3.6146,-3.6175,-3.6209,-3.6232,-3.6202,-3.6329,-3.6341,-3.6351,-3.6391,-3.6406,-3.6224,-3.6224,-3.6223,-3.6223,0,-3.5245,-3.5298,-3.5382,-3.5435,-3.5513,-3.5548,-3.5568,-3.5647,-3.5673,-3.5776,-3.5782,-3.585,-3.5978,-3.6029,-3.6072,-3.6189,-3.6188,-3.6212,-3.626,-3.6321,-3.6333,-3.6344,-3.6385,-3.64,-3.6221,-3.6222,-3.6222,0,-3.515,-3.5209,-3.5255,-3.5367,-3.5418,-3.5495,-3.547,-3.5552,-3.5609,-3.5615,-3.5716,-3.5755,-3.5826,-3.5936,-3.5986,-3.597,-3.6146,-3.6098,-3.6103,-3.6109,-3.617,-3.6185,-3.6198,-3.6025,-3.6024,-3.6023,0,0,-3.5119,-3.5196,-3.5271,-3.5364,-3.5396,-3.5448,-3.5493,-3.5511,-3.5577,-3.5603,-3.5652,-3.5715,-3.5789,-3.5838,-3.591,-3.6024,-3.6041,-3.6072,-3.6081,-3.6089,-3.6098,-3.6161,-3.6176,-3.602,-3.602,-3.6019,0,0,-3.5104,-3.5195,-3.5198,-3.5313,-3.5376,-3.5455,-3.551,-3.5514,-3.5584,-3.5579,-3.5612,-3.563,-3.5733,-3.577,-3.5722,-3.5897,-3.5861,-3.5874,-3.5869,-3.5881,-3.5891,-3.5878,-3.5702,0,0,0,0,0,-3.5099,-3.5184,-3.5186,-3.5212,-3.5353,-3.5454,-3.5472,-3.5502,-3.5477,-3.552,-3.5562,-3.5559,-3.5751,-3.571,-3.5734,-3.5787,-3.5978,-3.5985,-3.5992,-3.6013,-3.6026,-3.6036,0,0,0,0,0,0,-3.5109,-3.5141,-3.5184,-3.5266,-3.5297,-3.5451,-3.5414,-3.5425,-3.5473,-3.5471,-3.5551,-3.5561,-3.5588,-3.5699,-3.572,-3.577,-3.5695,-3.5981,-3.5987,-3.5993,-3.6017,-3.6028,-3.6036,0,0,0,0,0,-3.5118,-3.5143,-3.5361,-3.5265,-3.5292,-3.5353,-3.5411,-3.542,-3.5457,-3.5522,-3.5533,-3.5476,-3.5588,-3.5608,-3.5712,-3.576,-3.568,-3.5688,-3.5985,-3.599,-3.5994,-3.6022,0,0,0,0,0,0,-3.5124,-3.5152,-3.5367,-3.5377,-3.5235,-3.5345,-3.5364,-3.5415,-3.5506,-3.5517,-3.5449,-3.5446,-3.559,-3.5605,-3.562,-3.5754,-3.5668,-3.5676,-3.5681,-3.5989,-3.5992,-3.5996,0,0,0,0,0,0,-3.5138,-3.5159,-3.5372,-3.5333,-3.5338,-3.5338,-3.5354,-3.5446,-3.5507,-3.5427,-3.5428,-3.5446,-3.5566,-3.5603,-3.5615,-3.5757,-3.5659,-3.5667,-3.5672,-3.5676,-3.5992,-3.5995,0,0,0,0,0,0,-3.5147,-3.5166,-3.533,-3.5334,-3.5339,-3.5448,-3.5419,-3.5561,-3.5475,-3.5423,-3.5468,-3.5465,-3.5564,-3.5577,-3.5612,-3.5748,-3.5755,-3.5659,-3.5665,-3.5668,-3.5671,0,0,0,0,0,0,0,-3.5155,-3.5024,-3.5311,-3.5336,-3.534,-3.5465,-3.5467,-3.547,-3.5474,-3.5472,-3.5469,-3.5466,-3.5615,-3.5624,-3.5632,-3.5741,0,0,-3.5659,-3.5662,0,0,0,0,0,0,0,0,-3.5017,-3.5023,-3.5311,-3.5313,-3.5315,-3.5465,-3.5467,-3.5469,-3.5474,-3.5472,-3.5469,-3.5467,-3.5618,-3.5624,-3.5631,0,0,0,0,0,0,0,0,0,0,0,0,0,0,0,-3.5312,-3.5313,0,-3.5465,-3.5467,-3.5469,-3.5474,-3.5472,-3.547,-3.5468,-3.562,-3.5625,-3.5631,0,0,0,0,0,0,0,0,0,0,0,0,0,0,0,0,0,0,0,0,0,0,0,0,0,0,0,0,0,0,0,0,0,0,0,0,0,0,0,0,0,0,0,0,0,0,0,0,0,0,0,0,0,0,0,0,0,0,0,0,0,0,0,0,0,0,0,0,0]}]]]